Find Starlink 6301

NORAD ID: 56392 Int'l Des: 2023-061 Owner: SPXS Country: US Constellation: starlink operational
LEOCIRCULAR

实时位置

正在加载3D地球...

关于 Starlink 6301

正在加载描述...

即将过境

Passes for default location (London). Set your location on the main map for personalized predictions.

高度历史

Loading altitude history...

两行轨道根数

1 56392U 23061U 26126.95589496 .00017522 00000-0 64651-3 0 9991
2 56392 43.0015 218.1580 0001069 271.8840 88.1889 15.27490623165789
Epoch: May 6, 2026 • Age: 8 hours

当前状态

高度 483.9 km
速度 7.63 km/s
星下点 26.69°N, 27.69°E
发射日期 May 4, 2023
运行时间 3 years
类型 internet

技术详情

分类 Payload
质量 305.00 kg
干质量 290.00 kg
总质量 305.00 kg
长度 0.20 m
直径 2.80 m
跨度 9.00 m
形状 Box + pan
制造商 SPXS
平台类型 Starlink
阶段状态 In Orbit
所有者/国家 SPXS/US

Most Searched